User: anonymous   Login
Location: Robert Brownlee Observatory
(34.2308°N, 117.2089°W)
Time: 05:00:07
(UTC-07:00)
Language:

Cosmos 1943 - Orbit

View from above orbital plane
View from above orbital plane
View from above satellite
View from above satellite

Ground track
Ground track

The orbit data is extracted from the following two-line orbital elements,

1 19119U 88039A   17232.86150319 -.00000248 +00000-0 -10317-3 0  9998
2 19119 071.0051 325.9664 0013367 311.7612 186.5633 14.15097565510970
Epoch (UTC): 20 August 2017 20:40:33
Eccentricity: 0.0013367
inclination: 71.0051°
perigee height: 832 km
apogee height: 851 km
right ascension of ascending node: 325.9664°
argument of perigee: 311.7612°
revolutions per day: 14.15097565
mean anomaly at epoch: 186.5633°
orbit number at epoch: 51097

The dashed part of the orbit path shows where the satellite is in the earth's shadow,  

DLR